Regional Weather Roundup
Issued by NWS

Home | Current Version | Previous Version | Graphics & Text | Print | Product List | Glossary On
Versions: 1 2 3 4 5 6 7 8 9 10 11 12 13 14 15 16 17 18 19 20 21 22 23 24 25 26 27 28 29 30 31 32 33 34 35 36 37 38 39 40 41 42 43 44 45 46 47 48 49 50
000
ASUS43 KDTX 302201
RWRMI
MICHIGAN HOURLY REGIONAL WEATHER ROUNDUP
NATIONAL WEATHER SERVICE DETROIT/PONTIAC MI
600 PM EDT THU OCT 30 2014

NOTE: "FAIR" INDICATES FEW OR NO CLOUDS BELOW 12,000 FEET WITH NO
SIGNIFICANT WEATHER AND/OR OBSTRUCTION TO VISIBILITY.

MIZ047>049-052>055-059>063-066>070-074>076-081>083-302300-
SOUTHEAST LOWER MICHIGAN

CITY           SKY/WX    TMP DP  RH WIND       PRES   REMARKS
ADRIAN         CLOUDY    47  36  65 W3        30.08S
ALMA           CLOUDY    47  38  71 S5        30.04S
ANN ARBOR      CLOUDY    48  34  58 SW6       30.06S
BAD AXE        CLOUDY    46  38  74 S5        30.04F
CARO           CLOUDY    47  37  68 S3        30.04S
DETROIT CITY   CLOUDY    51  33  50 SW8       30.07S
DETROIT        CLOUDY    48  35  60 SW8       30.07F
FLINT          CLOUDY    49  36  61 SW7       30.05F
GROSSE ILE     CLOUDY    48  37  66 S3        30.06S
HILLSDALE      CLOUDY    47  35  62 SW3       30.06S
HOWELL         CLOUDY    46  36  67 CALM      30.05S

CITY           SKY/WX    TMP DP  RH WIND       PRES   REMARKS
JACKSON        CLOUDY    47  35  63 SW6       30.05F
LAMBERTVILLE   CLOUDY    50  34  53 W3        30.08S
LANSING        CLOUDY    47  36  65 SW9       30.06S
LAPEER         CLOUDY    47  35  63 SW3       30.05S
MASON          CLOUDY    47  36  64 CALM      30.05F
MONROE         CLOUDY    48  37  66 SW5       30.06S
MT. CLEMENS    CLOUDY    47  38  72 S6        30.04S
PONTIAC        CLOUDY    47  33  58 SW7       30.05S
PORT HOPE        N/A     47  36  65 VRB3      30.03S
PORT HURON     CLOUDY    46  36  66 CALM      30.06S
TRI CITIES     LGT RAIN  49  38  65 SW9       30.04S
TROY           CLOUDY    50  32  49 SW5       30.07F
SAGINAW HB     CLOUDY    50  36  57 SW9       30.04S
$$
MIZ043>046-050>051-056>058-064>065-071>073-077>080-302300-
SOUTHWEST LOWER MICHIGAN

CITY           SKY/WX    TMP DP  RH WIND       PRES   REMARKS
BATTLE CREEK   CLOUDY    48  35  60 SW6       30.06S
BENTON HARBOR  CLOUDY    48  36  63 W8        30.06S
BIG RAPIDS     CLOUDY    47  41  80 W7        30.01F
COLDWATER      CLOUDY    49  36  62 SW5       30.06S
FREMONT        CLOUDY    46  33  58 W7        30.03S
HOLLAND        CLOUDY    49  38  65 W10       30.06S
GRAND RAPIDS   CLOUDY    48  37  65 W14       30.05S
IONIA          CLOUDY    48  37  67 SW8       30.04S
KALAMAZOO      CLOUDY    49  34  56 SW5       30.06S
LUDINGTON      CLOUDY    47  38  70 W6        30.03F
MARSHALL       CLOUDY    47  35  63 SW5       30.05S
MOUNT PLEASANT RAIN      47  38  70 SW5       30.02S
MUSKEGON       MOCLDY    48  36  63 W8        30.05S
SOUTH HAVEN    MOCLDY    49  37  62 W5        30.06S
$$
MIZ016>042-302300-
NORTHERN LOWER MICHIGAN

CITY           SKY/WX    TMP DP  RH WIND       PRES   REMARKS
ALPENA         LGT RAIN  42  40  92 SE6       30.01S
BEAVER ISLAND  DRIZZLE   44  38  79 SW8G17    29.97F
BELLAIRE       CLOUDY    46  37  70 SW5       30.00S
CADILLAC       CLOUDY    43  38  83 SW7       29.99S
CHARLEVOIX     CLOUDY    44  37  76 SW8       30.01F
FRANKFORT      CLOUDY    46  37  72 W7        30.01S
GAYLORD        CLOUDY    41  39  93 SW9       29.98F
GRAYLING       CLOUDY    42  38  87 W3        30.00F
HARBOR SPRINGS RAIN      43  40  89 SW8       29.98S
HOUGHTON LAKE  LGT RAIN  43  39  86 W5        30.01S
MANISTEE       CLOUDY    46  34  61 SW5       30.02F
OSCODA         RAIN      45  40  85 CALM      30.01F
PELLSTON       LGT RAIN  43  41  93 CALM      29.98F
TRAVERSE CITY  CLOUDY    47  36  65 W6        30.00S
$$
MIZ007>008-015-302300-
EASTERN UPPER MICHIGAN

CITY           SKY/WX    TMP DP  RH WIND       PRES   REMARKS
KINROSS        CLOUDY    41  41 100 CALM      29.97F
MACKINAC ISLAN LGT RAIN  42  42  99 CALM      29.97F
NEWBERRY       DRIZZLE   40  38  93 CALM      29.96S
S. S. MARIE    LGT RAIN  42  39  89 S5        29.96F
MUNISING         N/A     43  38  82 NW3       29.98S
$$
MIZ004>006-011>014-085-302300-
CENTRAL UPPER MICHIGAN

CITY           SKY/WX    TMP DP  RH WIND       PRES   REMARKS
MANISTIQUE     LGT RAIN  42  40  93 CALM      29.97S
ESCANABA       CLOUDY    45  34  65 W7        29.99S
MENOMINEE      CLOUDY    46  32  57 W3        29.99F
SAWYER-GWINN   CLOUDY    39  36  87 CALM      29.97S
$$
MIZ001>003-009>011-084-302300-
WESTERN UPPER MICHIGAN

CITY           SKY/WX    TMP DP  RH WIND       PRES   REMARKS
IRON MOUNTAIN  MOCLDY    42  31  64 W12       29.99R
HOUGHTON       LGT RAIN  39  35  86 NW8       29.98R WCI  33
COPPER HARBOR    N/A     41  37  86 NE8       29.98S
IRONWOOD       CLOUDY    39  34  81 W9G16     30.02S WCI  33
$$

ABBREVIATIONS USED IN REMARKS
   TC - TEMPERATURE IN CELSIUS
  WCI - WIND CHILL INDEX
   HX - HEAT INDEX
  VSB - VISIBILITY




USA.gov is the U.S. government's official web portal to all federal, state and local government web resources and services.